DW7371 Weather Reports


Display with metric or nautical units.
time (UTC)temp
F
wind
direction
speed
MPH
gust
MPH
rain 1hr
in
rain 24hr
in
rain mn
in
humidity
%
barometer
mb
20260502130406 50 355 0.0 3.0 0.00 0.00 0.00 93 1014.9
20260502123204 48 12 0.0 2.0 0.00 0.00 0.00 94 1014.5
20260502122145 48 150 0.0 1.0 0.00 0.00 0.00 95 1014.6
20260502121205 47 161 0.0 3.0 0.00 0.00 0.00 94 1014.6
20260502120137 48 230 0.0 0.0 0.00 0.00 0.00 94 1014.6
20260502115126 48 153 0.0 2.0 0.00 0.00 0.00 94 1014.6
20260502114105 48 112 0.0 1.0 0.00 0.00 0.00 94 1014.5
20260502113054 49 112 0.0 2.0 0.00 0.00 0.00 94 1014.3
20260502112042 49 13 1.0 2.0 0.00 0.00 0.00 94 1014.2
20260502111036 49 111 0.0 4.0 0.00 0.00 0.00 94 1014.4
20260502110059 49 173 1.0 4.0 0.00 0.00 0.00 94 1014.4
20260502105025 49 148 0.0 3.0 0.00 0.00 0.00 95 1014.4
20260502102825 49 165 0.0 3.0 0.00 0.00 0.00 93 1014.4
20260502101842 49 117 0.0 0.0 0.00 0.00 0.00 92 1014.2
20260502100847 49 117 0.0 0.0 0.00 0.00 0.00 93 1014.2
20260502070921 51 127 0.0 1.0 0.00 0.00 0.00 89 1013.9
20260502065943 51 119 0.0 4.0 0.00 0.00 0.00 89 1013.9
20260502064930 51 157 1.0 4.0 0.00 0.00 0.00 90 1013.9
20260502063951 51 182 0.0 2.0 0.00 0.00 0.00 89 1013.9
20260502062929 51 165 0.0 1.0 0.00 0.00 0.00 89 1013.7
20260502061946 51 153 1.0 5.0 0.00 0.00 0.00 90 1013.7
20260502060922 51 164 2.0 8.0 0.00 0.00 0.00 90 1013.7
20260502054816 51 177 2.0 7.0 0.00 0.00 0.00 89 1013.6
20260502053811 52 173 0.0 3.0 0.00 0.00 0.00 87 1013.6
20260502052815 53 138 0.0 1.0 0.00 0.00 0.00 86 1013.5
20260502051823 53 155 0.0 0.0 0.00 0.00 0.00 86 1013.4
20260502050825 53 15 0.0 0.0 0.00 0.00 0.00 86 1013.4
20260502044657 54 118 1.0 4.0 0.00 0.00 0.00 84 1013.5
20260502043645 54 161 0.0 3.0 0.00 0.00 0.00 84 1013.5
20260502041513 56 116 0.0 2.0 0.00 0.00 0.00 81 1013.3
20260502040516 56 139 0.0 2.0 0.00 0.00 0.00 81 1013.2
20260502035458 57 276 0.0 0.0 0.00 0.00 0.00 80 1013.0
20260502034510 57 276 0.0 0.0 0.00 0.00 0.00 79 1012.8
20260502033444 58 276 0.0 0.0 0.00 0.00 0.00 79 1012.7
20260502032425 58 276 0.0 0.0 0.00 0.00 0.00 78 1012.6
20260502031448 59 276 0.0 2.0 0.00 0.00 0.00 77 1012.5
20260502030420 61 283 0.0 0.0 0.00 0.00 0.00 74 1012.6
20260502025442 62 283 0.0 0.0 0.00 0.00 0.00 70 1012.5
20260502024424 62 283 0.0 0.0 0.00 0.00 0.00 69 1012.4
20260502023356 62 283 0.0 1.0 0.00 0.00 0.00 70 1012.3
20260502022348 62 283 1.0 3.0 0.00 0.00 0.00 69 1012.4
20260502021320 62 292 1.0 3.0 0.00 0.00 0.00 69 1012.4
20260502020343 62 301 2.0 6.0 0.00 0.00 0.00 68 1012.4
20260502015351 63 283 2.0 6.0 0.00 0.00 0.00 67 1012.5
20260502014408 63 273 2.0 5.0 0.00 0.00 0.00 68 1012.4
20260502013401 63 263 2.0 4.0 0.00 0.00 0.00 67 1012.5
20260502011151 62 306 2.0 7.0 0.00 0.00 0.00 67 1012.5
20260502010148 62 294 4.0 7.0 0.00 0.00 0.00 67 1012.6
20260502004033 63 272 5.0 7.0 0.00 0.00 0.00 66 1012.7
20260502001944 63 252 5.0 9.0 0.00 0.00 0.00 66 1012.7
20260501234712 64 234 7.0 9.0 0.00 0.00 0.00 67 1013.0
20260501233641 65 213 5.0 9.0 0.00 0.00 0.00 65 1013.0
20260501232702 66 281 3.0 7.0 0.00 0.00 0.00 62 1012.9
20260501231651 66 269 3.0 7.0 0.00 0.00 0.00 65 1013.0
20260501225504 64 227 5.0 7.0 0.00 0.00 0.00 69 1013.4
20260501224525 64 204 5.0 8.0 0.00 0.00 0.00 69 1013.5
20260501223458 64 259 6.0 8.0 0.00 0.00 0.00 67 1013.6
20260501222506 66 226 4.0 8.0 0.00 0.00 0.00 68 1013.7
20260501221524 65 277 2.0 8.0 0.00 0.00 0.00 67 1013.7
20260501220546 66 276 3.0 8.0 0.00 0.00 0.00 69 1013.8
20260501215524 66 163 3.0 7.0 0.00 0.00 0.00 69 1013.8
20260501213403 67 64 2.0 6.0 0.00 0.00 0.00 65 1013.7
20260501212330 67 355 2.0 6.0 0.00 0.00 0.00 65 1013.8
20260501211354 67 341 2.0 6.0 0.00 0.00 0.00 67 1013.9
20260501210323 65 282 2.0 3.0 0.00 0.00 0.00 72 1013.9
20260501205312 64 280 2.0 5.0 0.00 0.00 0.00 72 1014.1
20260501204253 64 265 2.0 6.0 0.00 0.00 0.00 71 1014.1
20260501203227 65 277 1.0 6.0 0.00 0.00 0.00 72 1014.2
20260501202218 64 290 2.0 8.0 0.00 0.00 0.00 73 1014.3
20260501201225 65 304 2.0 8.0 0.00 0.00 0.00 72 1014.3
20260501200158 64 292 2.0 6.0 0.00 0.00 0.00 72 1014.4
20260501195158 64 52 2.0 5.0 0.00 0.00 0.00 66 1014.4
20260501194157 64 340 2.0 5.0 0.00 0.00 0.00 64 1014.5
20260501193215 63 38 2.0 5.0 0.00 0.00 0.00 64 1014.5
20260501191006 62 36 2.0 7.0 0.00 0.00 0.00 71 1014.7
20260501190020 61 340 2.0 7.0 0.00 0.00 0.00 71 1014.8
20260501185006 60 350 2.0 7.0 0.00 0.00 0.00 73 1014.8
20260501183935 61 346 1.0 5.0 0.00 0.00 0.00 73 1014.9
20260501182904 61 350 2.0 6.0 0.00 0.00 0.00 74 1015.0
20260501181929 60 76 2.0 7.0 0.00 0.00 0.00 77 1015.0
20260501180859 60 32 3.0 7.0 0.00 0.00 0.00 75 1015.0
20260501175918 60 34 2.0 6.0 0.00 0.00 0.00 72 1015.0
20260501174911 59 69 2.0 6.0 0.00 0.00 0.00 72 1015.1
20260501173916 57 184 3.0 5.0 0.00 0.00 0.00 82 1015.1
20260501170726 55 202 3.0 7.0 0.00 0.00 0.00 84 1015.1
20260501165707 55 192 3.0 7.0 0.00 0.00 0.00 84 1015.0
20260501163544 56 215 2.0 5.0 0.00 0.00 0.00 85 1015.0
20260501162555 56 222 1.0 4.0 0.00 0.00 0.00 83 1015.1
20260501160336 56 39 0.0 3.0 0.00 0.00 0.00 85 1015.3
20260501155346 53 183 1.0 3.0 0.00 0.00 0.00 90 1015.2
20260501154348 52 206 2.0 5.0 0.00 0.00 0.00 92 1015.3
20260501153317 52 206 3.0 5.0 0.00 0.00 0.00 92 1015.2
20260501152310 51 193 2.0 5.0 0.00 0.00 0.00 93 1015.2
20260501151257 51 180 2.0 5.0 0.00 0.00 0.00 94 1015.2
20260501150310 51 199 2.0 5.0 0.00 0.00 0.00 94 1015.1
20260501145256 50 191 0.0 2.0 0.00 0.00 0.00 95 1014.9